FENGYUN 1C DEB, 30314

Orbit data source: Space-Track

FENGYUN 1C DEB, 30314 is space debris in SSO originally from a launch on Mon, 10 May 1999 UTC launched from the Taiyaun Space Center, China (TSC). Fengyun 1C debris stems from the Chinese weather satellite Fengyun-1C, which was intentionally destroyed by a Chinese anti-satellite missile in 2007. This event dramatically increased the amount of space debris, with thousands of trackable fragments posing hazards to satellites and human spaceflight. The Fengyun 1C debris cloud has become a focal point in discussions about space sustainability and the need for international regulations to prevent the creation of new debris.

Loading next visibility...
FENGYUN 1C DEB details
Identifier
30314, 1999-025AAB
Orbit
SSO
Last TLE update4 days ago
Origin
Flag of CNCASC (CN / PRC)
ManufacturerUnknown
MissionSpacecraft
Bus & MotorUnknown
MassUnknown
Launch date (UTC)
1999-05-10 (26 years ago)
Launch vehicleUnknown
Launch site
Taiyaun Space Center, China (TSC)
Object type
Payload
Rocket body
Debris
Shape & HBRUnknown
Radar Cross SectionSmall (<0.1 m²)

Expand to show TLE details & history

TLE from 4 days ago
0 FENGYUN 1C DEB
1 30314U 99025AAB 24352.59265350  .00003582  00000-0  22827-2 0  9998
2 30314  98.4049 206.7489 0140411 292.5463  66.0894 13.99475867910681
Epoch: 2024-12-17T14:13Z
Definitive object data (Epoch: 2024-12-17T14:13:25.262Z)
Latitude-0.00005°
Longitude-93.30536°
Altitude858.313 km
Speed7.444 km/s
True Right ascension13h 46m 59s
True Declination0° 00' 00"
Sunlit
Object was in daylight at TLE epoch
Visualization TLE readout
Latitude19.30305°
Longitude-92.57528°
Altitude911.153 km
Speed7.391 km/s
Apparent Right ascension14h 46m 04s
Apparent Declination-38° 57' 47"
Sunlit
Object is in daylight
Visualization observer readout
Local Sidereal Time13:26:22
Azimuth164.437° S
Elevation9.043°
Doppler factor1
Orbital elements
Apogee altitude994.873 km
Perigee altitude790.69 km
Semi-major axis7,270.919 km
Eccentricity0.0140411
Inclination98.4049°
RAAN206.7489°
Arg. of periapsis292.5463°
True anomaly67.57068°
Mean anomaly66.0894°
Eccentric anomaly66.829°
Mean motion3.50073 °/min
BSTAR0.0022827
Orbital period102.84 mins
Loading maneuver chart data...
Loading historical data...
Loading historical data...
Loading historical data...
Loading historical data...
Loading historical data...
Loading historical data...
Loading historical data...

FENGYUN 1C DEB Visibility forecast

Observer location: undefined°, undefined

Span
Click to sort rows by Start time (UTC) header in descending order
Start Az.
Max El. time (UTC)
Max El. Az.
Max El.
End time (UTC)
End Az.
11 mins2024-12-21 14:25:15.055Z164.512° S2024-12-21 14:30:15.055Z117.866° SE44.984°2024-12-21 14:36:15.055Z347.33° N
9 mins2024-12-22 02:56:15.055Z29.167° NE2024-12-22 03:00:15.055Z97.635° ESE39.2°2024-12-22 03:05:15.055Z174.026° S
7 mins2024-12-22 04:38:15.055Z336.538° NNW2024-12-22 04:41:15.055Z300.208° NW22.324°2024-12-22 04:45:15.055Z252.046° W
4 mins2024-12-22 12:49:15.055Z75.746° E2024-12-22 12:51:15.055Z53.812° ENE14.174°2024-12-22 12:53:15.055Z33.209° NE
|